sat.trackr.live / text

‹ back to catalog

STARLINK-37271

NORAD 68722 · 2026-081Z

PAYLOAD ACTIVE UNKNOWN

§ Identity

Operator
Country
US
Launch date
2026-04-14
Launch site
AFETR
Launch vehicle
Mass (kg)
RCS (m²)

Purposes: comms

External: N2YO · Heavens-Above · Gunter

§ Orbital elements

Epoch: 2026-09-19T11:23:07.468800Z

Period
93.85 min
Inclination
53.1561°
Eccentricity
0.0002141
Mean motion
15.34412018 rev/d
Perigee alt
461.2 km
Apogee alt
464.1 km
Semi-major
6,840.8 km
B*
4.9734e-4
RAAN
210.3148°
Arg perigee
101.3860°
Mean anomaly
258.7383°
Rev number
2,446

§ Raw data

STARLINK-372711 68722U 26081Z   26262.47439200  .00016471  00000+0  49734-3 0  99972 68722  53.1561 210.3148 0002141 101.3860 258.7383 15.34412018 24465

JSON: /api/v1/satellites/68722 · /tle

For live sub-satellite position, see the globe view (requires WebGL).

§ Visibility from observer

Set your observer location to see the next 7 days of passes ≥ 10°. The values pass through the URL so the page stays shareable.

No JS? Fill the form by hand. The geolocation button needs JavaScript.